軌道要素
Epoch 2018 Oct. 9.0 TT = JDT 2458400.5
T 2018 Sept. 25.26265 TT Bell
q 7.7242821 (2000.0) P Q
z -0.0004784 Peri. 159.14925 +0.07898160 +0.93755976
+/-0.0000029 Node 245.95090 +0.85404046 +0.11162569
e 1.0036954 Incl. 158.22659 +0.51417585 -0.32942586
From 70 observations 2017 Jan. 2-2020 Feb. 26, mean residual 0".4.
|